Location: Peterborough
(44.3091°N, 78.3197°W)
Time: 06:11:40
(UTC-04:00)

Vanguard 3 - Pass Details

Date: 02 March 2024
Orbit: 510 x 3236 km, 33.3° (Epoch: 12 April)

Event Time Altitude Azimuth Distance (km) Brightness Sun altitude
Rises 01:06:12 0° 279° (W) 7,197 11.9 -51.6°
Reaches altitude 10° 01:11:59 10° 271° (W) 6,080 11.4 -51.3°
Enters shadow 01:12:35 11° 270° (W) 5,967 11.4 -51.3°
Maximum altitude 01:26:44 31° 219° (SW) 3,865 - -50.4°
Drops below altitude 10° 01:37:29 10° 163° (SSE) 4,388 - -49.5°
Sets 01:40:54 0° 153° (SSE) 5,013 - -49.2°
